Home > Weather > Vadsø > Past weeks

Flag for Norway Weather for the Past 2 Weeks in Vadsø, Norway

Now
32 °F

Light snow. Fog.


Feels Like: 27 °F
Forecast: 29 / 34 °F
Wind: 5 mph from Northeast

Location: Vadso

Current Time: Feb 10, 2016 at 2:29:27 PM

Latest Report: Feb 10, 2016 at 1:50 PM


Visibility: 2 mi

Pressure: 29.18 "Hg

Humidity: 93%

Dew point: 30 °F

Location of VadsøLocation

Historic Weather in Vadsø — Graph

°F

Vadsø Temperature Yesterday

Maximum temperature yesterday: 36 °F (at 4:50 AM)
Minimum temperature yesterday: 34 °F (at 11:50 AM)
Average temperature yesterday: 35 °F

High & Low Weather Summary for the Past Weeks

 TemperatureHumidityPressure
High37 °F (Feb 8, 12:50 PM)100% (Feb 10, 4:50 AM)29.65 "Hg (Feb 10, 4:50 AM)
Low9 °F (Feb 3, 4:50 PM)51% (Jan 26, 4:50 PM)28.65 "Hg (Jan 31, 12:20 PM)
Average25 °F87%29.04 "Hg
* Reported Jan 26 12:50 PM — Feb 10 12:50 PM, Vadsø, Weather by CustomWeather, © 2016

Note: Actual official high and low records may vary slightly from our data, if they occured in-between our weather recording intervals... More about our weather records

Advertising

Vadsø Weather History for the Previous 24 Hours

 ConditionsComfort  
Time TempWeatherWind HumidityBarometerVisibility
12:50 PM
Wed, Feb 10
34 °FLight snow. Light fog.5 mph87%29.15 "Hg4 mi
11:50 AM34 °FLight snow. Light fog.5 mph87%29.12 "Hg4 mi
10:50 AM34 °FScattered showers. Broken clouds.3 mph87%29.09 "HgN/A
9:20 AM34 °FBroken clouds.1 mph93%29.06 "HgN/A
8:50 AM34 °FLight rain. Fog.5 mph93%29.06 "HgN/A
7:50 AM32 °FLight snow. Partly sunny.5 mph100%29.03 "Hg6 mi
6:50 AM32 °FLight snow. Partly sunny.5 mph100%29.00 "Hg6 mi
5:50 AM32 °FLight snow. Light fog.6 mph100%29.00 "Hg5 mi
4:50 AM32 °FLight snow. Light fog.6 mph100%29.00 "Hg6 mi
12:50 AM34 °FLight rain. Passing clouds.5 mph93%29.00 "HgN/A
11:50 PM
Tue, Feb 9
34 °FLight rain. Partly cloudy.8 mph93%29.00 "HgN/A
10:50 PM36 °FLight rain. Partly cloudy.7 mph87%29.00 "HgN/A
9:50 PM36 °FPassing clouds.10 mph87%29.00 "HgN/A
8:50 PM36 °FLight rain. Passing clouds.10 mph87%29.03 "HgN/A
7:50 PM36 °FPartly cloudy.9 mph93%29.03 "HgN/A
6:50 PM36 °FPartly cloudy.13 mph87%29.03 "HgN/A
5:50 PM36 °FPartly cloudy.10 mph87%29.00 "HgN/A
4:50 PM36 °FPartly cloudy.14 mph87%29.03 "HgN/A
3:50 PM36 °FPartly cloudy.13 mph87%29.03 "HgN/A
2:50 PM36 °FLight rain. Partly cloudy.12 mph87%29.03 "HgN/A
Weather by CustomWeather, © 2016

See weather overviewHow to use our weather pages